Location: Isola Pescaroli
(45.0500°N, 10.1667°E)
Time: 02:57:57
(UTC+00:00)

SL-08 RB Rocket - Pass Details

Date: 03 March 2021
Orbit: 646 x 684 km, 97.8° (Epoch: 20 April)

Event Time Altitude Azimuth Distance (km) Brightness Sun altitude
Rises 18:49:27 0° 177° (S) 2,960 6.9 -18.4°
Reaches altitude 10° 18:51:41 10° 182° (S) 2,059 6.1 -18.8°
Maximum altitude 18:56:05 55° 260° (W) 795 4.4 -19.5°
Drops below altitude 10° 19:00:35 10° 339° (NNW) 2,097 6.7 -20.3°
Sets 19:02:53 0° 343° (NNW) 3,021 7.5 -20.7°
